TimeCDT,TemperatureF,Dew PointF,Humidity,Sea Level PressureIn,VisibilityMPH,Wind Direction,Wind SpeedMPH,Gust SpeedMPH,PrecipitationIn,Events,Conditions,WindDirDegrees,DateUTC
12:51 AM,62.1,54.0,75,29.89,10.0,ESE,3.5,-,0.00,,Overcast,120,2012-10-03 05:51:00
1:51 AM,62.1,55.0,78,29.90,10.0,Calm,Calm,-,0.00,,Overcast,0,2012-10-03 06:51:00
2:51 AM,62.1,55.9,80,29.91,10.0,Calm,Calm,-,0.00,,Overcast,0,2012-10-03 07:51:00
3:51 AM,62.1,54.0,75,29.92,10.0,South,5.8,-,0.00,,Overcast,190,2012-10-03 08:51:00
4:51 AM,62.1,51.1,67,29.93,10.0,SSW,4.6,-,0.00,Rain,Light Rain,210,2012-10-03 09:51:00
5:51 AM,61.0,52.0,72,29.95,10.0,East,5.8,-,0.00,,Overcast,90,2012-10-03 10:51:00
6:51 AM,61.0,52.0,72,29.96,10.0,South,3.5,-,0.00,Rain,Light Rain,170,2012-10-03 11:51:00
7:51 AM,62.1,52.0,70,29.97,10.0,South,8.1,-,0.00,,Mostly Cloudy,190,2012-10-03 12:51:00
8:51 AM,64.0,52.0,65,29.97,10.0,SW,6.9,-,N/A,,Mostly Cloudy,220,2012-10-03 13:51:00
9:51 AM,66.0,53.1,63,29.99,10.0,SSW,5.8,-,N/A,,Mostly Cloudy,200,2012-10-03 14:51:00
10:51 AM,70.0,50.0,49,29.98,10.0,SW,5.8,-,N/A,,Mostly Cloudy,220,2012-10-03 15:51:00
11:51 AM,71.1,51.1,49,29.99,10.0,SW,6.9,-,N/A,,Mostly Cloudy,220,2012-10-03 16:51:00
12:51 PM,73.0,52.0,48,29.98,10.0,WSW,9.2,-,N/A,,Mostly Cloudy,240,2012-10-03 17:51:00
1:51 PM,73.4,51.8,47,29.98,10.0,WSW,9.2,-,N/A,,Mostly Cloudy,250,2012-10-03 18:51:00
2:51 PM,75.9,48.9,38,29.96,10.0,WSW,9.2,-,N/A,,Mostly Cloudy,240,2012-10-03 19:51:00
3:51 PM,75.9,48.0,37,29.95,10.0,SW,9.2,-,N/A,,Scattered Clouds,230,2012-10-03 20:51:00
4:51 PM,75.0,52.0,44,29.96,10.0,WNW,8.1,-,N/A,,Mostly Cloudy,290,2012-10-03 21:51:00
5:51 PM,72.0,52.0,49,29.98,10.0,WSW,10.4,-,N/A,,Mostly Cloudy,250,2012-10-03 22:51:00
6:51 PM,71.1,52.0,51,29.98,10.0,WSW,4.6,-,N/A,,Mostly Cloudy,240,2012-10-03 23:51:00
7:51 PM,69.1,54.0,58,30.00,10.0,SSW,3.5,-,N/A,,Mostly Cloudy,200,2012-10-04 00:51:00
8:51 PM,69.1,55.0,61,30.02,10.0,Calm,Calm,-,N/A,,Overcast,0,2012-10-04 01:51:00
9:51 PM,69.8,55.4,60,30.04,10.0,South,5.8,-,N/A,,Overcast,170,2012-10-04 02:51:00
10:51 PM,68.0,53.6,60,30.06,10.0,SW,5.8,-,N/A,,Mostly Cloudy,220,2012-10-04 03:51:00
11:51 PM,66.9,52.0,59,30.05,10.0,SSW,4.6,-,N/A,,Mostly Cloudy,210,2012-10-04 04:51:00